Weather History for EINN - October, 2012

Change the Weather History Date:

Tuesday, October 9, 2012

  Actual Average Record
Temperature  
Mean Temperature 50 °F -  
Max Temperature 56 °F 56 °F 66 °F (2010)
Min Temperature 44 °F 44 °F 42 °F (2004)
Degree Days  
Heating Degree Days 15    
Moisture  
Dew Point 47 °F    
Average Humidity 89    
Maximum Humidity 100    
Minimum Humidity 77    
Precipitation  
Precipitation 0.00 in 0.12 in - ()
Sea Level Pressure  
Sea Level Pressure 29.99 in    
Wind  
Wind Speed 5 mph ()    
Max Wind Speed 9 mph    
Max Gust Speed -    
Visibility 6.4 miles    
Events      
Averages and records for this station are not official NWS values.
T = Trace of Precipitation, MM = Missing Value Source: Averaged Metar Reports

Daily Weather History Graph

Daily Weather History Graph

Search for Another Location

Airport or City:

Trip Planner

Search our weather history database for the weather conditions in past years. The results will help you decide how hot, cold, wet, or windy it might be!

Date:

Astronomy

Oct. 09, 2012 Rise Set
Actual Time 7:51 AM IST 6:53 PM IST
Civil Twilight 7:17 AM IST 7:27 PM IST
Nautical Twilight 6:37 AM IST 8:07 PM IST
Astronomical Twilight 5:57 AM IST 8:47 PM IST
Moon 12:27 AM IST (10/9) 3:55 PM IST (10/9)
Length of Visible Light 12h 10m
Length of Day
11h 01m
Last Quarter, 39% of the Moon is Illuminated
Oct 9
Last Quarter
Oct 15
New
Oct 22
First Quarter
Oct 29
Full
Nov 7
Last Quarter

Hourly Weather History & Observations

Time (IST) Temp. Windchill Dew Point Humidity Pressure Visibility Wind Dir Wind Speed Gust Speed Precip Events Conditions
12:00 AM 46.4 °F 43.5 °F 44.6 °F 93% 30.01 in 6.2 mi NNE 5.8 mph - N/A   Scattered Clouds
12:30 AM 46.4 °F 44.3 °F 44.6 °F 93% 30.01 in 6.2 mi NNE 4.6 mph - N/A   Mostly Cloudy
1:00 AM 45 °F - 44 °F 93% 30.01 in 9 mi NNE 6.7 mph - -   Mist
1:00 AM 44.6 °F 41.4 °F 44.6 °F 100% 30.01 in 6.2 mi NNE 5.8 mph - N/A   Mostly Cloudy
1:30 AM 46.4 °F 44.3 °F 44.6 °F 93% 29.98 in 6.2 mi NNE 4.6 mph - N/A   Mostly Cloudy
2:00 AM 46.4 °F 42.9 °F 44.6 °F 93% 29.98 in 6.2 mi NNE 6.9 mph - N/A   Mostly Cloudy
2:30 AM 46.4 °F 42.9 °F 44.6 °F 93% 29.98 in 6.2 mi NE 6.9 mph - N/A   Overcast
3:00 AM 48.2 °F - 44.6 °F 87% 29.98 in 6.2 mi NNE 5.8 mph - N/A   Overcast
3:30 AM 48.2 °F - 44.6 °F 87% 29.98 in 6.2 mi NNE 6.9 mph - N/A   Mostly Cloudy
4:00 AM 46.4 °F 42.9 °F 44.6 °F 93% 29.98 in 6.2 mi NE 6.9 mph - N/A   Overcast
4:30 AM 46.4 °F 42.9 °F 44.6 °F 93% 29.98 in 6.2 mi NNE 6.9 mph - N/A   Overcast
5:00 AM 46.4 °F 42.9 °F 44.6 °F 93% 29.98 in 6.2 mi NNE 6.9 mph - N/A   Overcast
5:30 AM 46.4 °F 42.4 °F 42.8 °F 87% 29.98 in 6.2 mi NNE 8.1 mph - N/A   Overcast
6:00 AM 44.6 °F 40.7 °F 42.8 °F 93% 29.98 in 6.2 mi NE 6.9 mph - N/A   Mostly Cloudy
6:30 AM 44.6 °F 40.7 °F 42.8 °F 93% 29.98 in 6.2 mi NE 6.9 mph - N/A   Mostly Cloudy
7:00 AM 44 °F - 42 °F 92% 29.98 in 12 mi NNE 8.9 mph - -   Scattered Clouds
7:00 AM 44.6 °F 40.2 °F 41.0 °F 87% 29.98 in 6.2 mi NNE 8.1 mph - N/A   Mostly Cloudy
7:30 AM 44.6 °F 40.2 °F 44.6 °F 100% 29.98 in 6.2 mi North 8.1 mph - N/A   Mostly Cloudy
8:00 AM 44.6 °F 41.4 °F 42.8 °F 93% 29.98 in 6.2 mi North 5.8 mph - N/A   Mostly Cloudy
8:30 AM 44.6 °F 40.7 °F 42.8 °F 93% 29.98 in 6.2 mi North 6.9 mph - N/A   Mostly Cloudy
9:00 AM 44.6 °F 42.2 °F 42.8 °F 93% 29.98 in 6.2 mi North 4.6 mph - N/A   Mostly Cloudy
9:30 AM 44.6 °F 41.4 °F 42.8 °F 93% 30.01 in 6.2 mi NNE 5.8 mph - N/A   Mostly Cloudy
10:00 AM 46.4 °F 42.9 °F 42.8 °F 87% 29.98 in 6.2 mi NNE 6.9 mph - N/A   Mostly Cloudy
10:30 AM 46.4 °F 43.5 °F 44.6 °F 93% 30.01 in 6.2 mi NNE 5.8 mph - N/A   Overcast
11:00 AM 48.2 °F - 44.6 °F 87% 30.01 in 6.2 mi NNE 4.6 mph - N/A   Overcast
11:30 AM 48.2 °F - 44.6 °F 87% 30.01 in 6.2 mi NNE 6.9 mph - N/A   Overcast
12:00 PM 48.2 °F - 44.6 °F 87% 30.01 in 6.2 mi North 4.6 mph - N/A   Overcast
12:30 PM 50.0 °F - 46.4 °F 87% 30.01 in 6.2 mi NNE 6.9 mph - N/A   Overcast
1:00 PM 50.0 °F - 46.4 °F 87% 30.01 in 6.2 mi NNE 6.9 mph - N/A   Overcast
1:30 PM 51.8 °F - 46.4 °F 82% 29.98 in 6.2 mi NNE 6.9 mph - N/A   Mostly Cloudy
2:00 PM 51.8 °F - 48.2 °F 88% 29.98 in 6.2 mi NE 5.8 mph - N/A   Mostly Cloudy
2:30 PM 53.6 °F - 48.2 °F 82% 29.98 in 6.2 mi East 5.8 mph - N/A   Mostly Cloudy
3:00 PM 55.4 °F - 48.2 °F 77% 29.98 in 6.2 mi ESE 3.5 mph - N/A   Mostly Cloudy
3:30 PM 55.4 °F - 50.0 °F 82% 29.98 in 6.2 mi SSE 3.5 mph - N/A   Mostly Cloudy
4:00 PM 55.4 °F - 50.0 °F 82% 29.98 in 6.2 mi ESE 3.5 mph - N/A   Mostly Cloudy
4:30 PM 55.4 °F - 50.0 °F 82% 29.98 in 6.2 mi ENE 5.8 mph - N/A   Mostly Cloudy
5:00 PM 55.4 °F - 50.0 °F 82% 29.98 in 6.2 mi ENE 6.9 mph - N/A   Mostly Cloudy
5:30 PM 55.4 °F - 50.0 °F 82% 29.98 in 6.2 mi ENE 5.8 mph - N/A   Mostly Cloudy
6:00 PM 55.4 °F - 50.0 °F 82% 29.98 in 6.2 mi ENE 6.9 mph - N/A   Overcast
6:30 PM 55.4 °F - 50.0 °F 82% 29.98 in 6.2 mi ENE 6.9 mph - N/A   Mostly Cloudy
7:00 PM 55 °F - 50 °F 77% 29.98 in 7 mi ENE 4.5 mph - -   Mist
7:00 PM 55.4 °F - 50.0 °F 82% 29.98 in 6.2 mi ENE 4.6 mph - N/A   Mostly Cloudy
7:30 PM 53.6 °F - 50.0 °F 88% 29.98 in 6.2 mi NE 4.6 mph - N/A   Overcast
8:00 PM 53.6 °F - 50.0 °F 88% 29.98 in 6.2 mi ENE 4.6 mph - N/A   Overcast
8:30 PM 53.6 °F - 50.0 °F 88% 29.98 in 6.2 mi ENE 4.6 mph - N/A   Overcast
9:00 PM 53.6 °F - 50.0 °F 88% 29.98 in 6.2 mi NE 3.5 mph - N/A   Overcast
9:30 PM 53.6 °F - 50.0 °F 88% 29.98 in 6.2 mi NE 5.8 mph - N/A   Overcast
10:00 PM 53.6 °F - 51.8 °F 94% 29.98 in 6.2 mi East 2.3 mph - N/A   Overcast
10:30 PM 53.6 °F - 51.8 °F 94% 29.98 in 6.2 mi SSE 2.3 mph - N/A   Overcast
11:00 PM 53.6 °F - 51.8 °F 94% 29.98 in 5.6 mi East 4.6 mph - N/A   Overcast
11:30 PM 53.6 °F - 50.0 °F 88% 29.98 in 5.6 mi East 4.6 mph - N/A   Overcast